Tiempo cada hora 1-e Yuldybaevo

Hoy, 20 Octubre, Martes

Tiempo Temperatura Precipitaciones Viento Presión Humedad
00:00 +11°C° 0 mm 1 mps 737 mmHg 46%
01:00 +11°C° 0 mm 1 mps 737 mmHg 45%
02:00 +11°C° 0 mm 1 mps 737 mmHg 44%
03:00 +10°C° 0 mm 1 mps 736 mmHg 44%
04:00 +10°C° 0 mm 1 mps 736 mmHg 49%
05:00 +9°C° 0 mm 1 mps 736 mmHg 48%
06:00 +9°C° 0 mm 1 mps 735 mmHg 48%
07:00 +9°C° 0 mm 1 mps 735 mmHg 48%
08:00 +9°C° 0 mm 2 mps 735 mmHg 51%
09:00 +9°C° 0 mm 2 mps 735 mmHg 53%
10:00 +10°C° 0 mm 3 mps 735 mmHg 56%
11:00 +10°C° 0.1 mm 3 mps 735 mmHg 64%
12:00 +9°C° 0.1 mm 3 mps 735 mmHg 73%
13:00 +9°C° 0.1 mm 3 mps 735 mmHg 81%
14:00 +8°C° 0.3 mm 3 mps 735 mmHg 83%
15:00 +6°C° 0.3 mm 4 mps 736 mmHg 86%
16:00 +5°C° 0.3 mm 4 mps 736 mmHg 88%
17:00 +4°C° 0 mm 4 mps 736 mmHg 87%
18:00 +4°C° 0 mm 3 mps 736 mmHg 85%
19:00 +4°C° 0 mm 2 mps 736 mmHg 84%
20:00 +4°C° 0 mm 2 mps 737 mmHg 84%
21:00 +5°C° 0 mm 1 mps 737 mmHg 85%
22:00 +4°C° 0 mm 1 mps 737 mmHg 85%
23:00 +4°C° 0 mm 1 mps 737 mmHg 82%

Mañana, 21 Octubre, Miércoles

Tiempo Temperatura Precipitaciones Viento Presión Humedad
00:00 +4°C° 0 mm 1 mps 737 mmHg 80%
01:00 +4°C° 0 mm 1 mps 737 mmHg 77%
02:00 +4°C° 0 mm 1 mps 737 mmHg 80%
03:00 +3°C° 0 mm 1 mps 737 mmHg 83%
04:00 +2°C° 0 mm 1 mps 737 mmHg 86%
05:00 +2°C° 0 mm 1 mps 737 mmHg 86%
06:00 +2°C° 0 mm 1 mps 736 mmHg 85%
07:00 +2°C° 0 mm 1 mps 736 mmHg 85%
08:00 +2°C° 0 mm 2 mps 736 mmHg 77%
09:00 +2°C° 0 mm 3 mps 736 mmHg 70%
10:00 +3°C° 0 mm 4 mps 736 mmHg 63%
11:00 +4°C° 0.1 mm 4 mps 736 mmHg 64%
12:00 +3°C° 0.1 mm 5 mps 735 mmHg 66%
13:00 +3°C° 0.1 mm 5 mps 735 mmHg 67%
14:00 +3°C° 0.2 mm 5 mps 735 mmHg 65%
15:00 +3°C° 0.2 mm 5 mps 735 mmHg 64%
16:00 +3°C° 0.2 mm 5 mps 736 mmHg 62%
17:00 +2°C° 0.1 mm 5 mps 736 mmHg 68%
18:00 +1°C° 0.1 mm 5 mps 736 mmHg 73%
19:00 0°C° 0.1 mm 4 mps 736 mmHg 79%
20:00 0°C° 0.3 mm 4 mps 736 mmHg 81%
21:00 -1°C° 0.3 mm 4 mps 736 mmHg 83%
22:00 -1°C° 0.3 mm 4 mps 736 mmHg 86%
23:00 -2°C° 0.2 mm 4 mps 736 mmHg 86%

Pasado mañana, 22 Octubre, Jueves

Tiempo Temperatura Precipitaciones Viento Presión Humedad
00:00 -2°C° 0.2 mm 4 mps 736 mmHg 87%
01:00 -2°C° 0.2 mm 5 mps 736 mmHg 87%
02:00 -3°C° 0 mm 4 mps 736 mmHg 86%
03:00 -3°C° 0 mm 4 mps 737 mmHg 85%
04:00 -4°C° 0 mm 3 mps 737 mmHg 84%
05:00 -4°C° 0.1 mm 4 mps 737 mmHg 84%
06:00 -4°C° 0.1 mm 4 mps 737 mmHg 84%
07:00 -4°C° 0.1 mm 4 mps 737 mmHg 84%
08:00 -3°C° 0 mm 4 mps 738 mmHg 81%
09:00 -3°C° 0 mm 4 mps 738 mmHg 77%
10:00 -2°C° 0 mm 5 mps 738 mmHg 73%
11:00 -2°C° 0.1 mm 5 mps 738 mmHg 71%
12:00 -2°C° 0.1 mm 5 mps 738 mmHg 69%
13:00 -1°C° 0.1 mm 5 mps 738 mmHg 68%
14:00 -2°C° 0.1 mm 5 mps 739 mmHg 70%
15:00 -2°C° 0.1 mm 5 mps 739 mmHg 72%
16:00 -2°C° 0.1 mm 5 mps 739 mmHg 74%
17:00 -2°C° 0.1 mm 4 mps 740 mmHg 77%
18:00 -3°C° 0.1 mm 4 mps 740 mmHg 80%
19:00 -2°C° 0.1 mm 3 mps 740 mmHg 83%
20:00 -2°C° 0 mm 3 mps 740 mmHg 83%
21:00 -4°C° 0 mm 3 mps 740 mmHg 83%
22:00 -4°C° 0 mm 3 mps 740 mmHg 82%
23:00 -4°C° 0 mm 3 mps 740 mmHg 83%

23 Octubre, Viernes

Tiempo Temperatura Precipitaciones Viento Presión Humedad
00:00 -4°C° 0 mm 3 mps 741 mmHg 84%
01:00 -4°C° 0 mm 3 mps 741 mmHg 84%
02:00 -3°C° 0 mm 2 mps 741 mmHg 85%
03:00 -3°C° 0 mm 2 mps 741 mmHg 86%
04:00 -4°C° 0 mm 2 mps 741 mmHg 86%
05:00 -4°C° 0 mm 2 mps 741 mmHg 87%
06:00 -4°C° 0 mm 2 mps 742 mmHg 87%
07:00 -4°C° 0 mm 2 mps 742 mmHg 87%
08:00 -3°C° 0 mm 2 mps 742 mmHg 82%
09:00 -2°C° 0 mm 2 mps 742 mmHg 76%
10:00 -1°C° 0 mm 3 mps 742 mmHg 71%
11:00 -1°C° 0 mm 3 mps 742 mmHg 69%
12:00 -1°C° 0 mm 3 mps 742 mmHg 66%
13:00 0°C° 0 mm 3 mps 742 mmHg 64%
14:00 +1°C° 0 mm 2 mps 742 mmHg 64%
15:00 +1°C° 0 mm 2 mps 742 mmHg 63%
16:00 +1°C° 0 mm 2 mps 742 mmHg 63%
17:00 +1°C° 0 mm 1 mps 742 mmHg 66%
18:00 0°C° 0 mm 1 mps 743 mmHg 70%
19:00 -1°C° 0 mm 1 mps 743 mmHg 73%
20:00 -3°C° 0 mm 2 mps 743 mmHg 72%
21:00 -3°C° 0 mm 2 mps 743 mmHg 72%
22:00 -3°C° 0 mm 2 mps 743 mmHg 72%
23:00 -2°C° 0 mm 2 mps 742 mmHg 71%

24 Octubre, Sábado

Tiempo Temperatura Precipitaciones Viento Presión Humedad
00:00 -2°C° 0 mm 2 mps 742 mmHg 70%
01:00 -2°C° 0 mm 2 mps 742 mmHg 70%
02:00 -2°C° 0 mm 2 mps 742 mmHg 70%
03:00 -1°C° 0 mm 3 mps 741 mmHg 69%
04:00 -1°C° 0 mm 3 mps 741 mmHg 69%
05:00 -1°C° 0 mm 3 mps 740 mmHg 72%
06:00 -1°C° 0 mm 3 mps 740 mmHg 75%
07:00 -2°C° 0 mm 4 mps 739 mmHg 78%
08:00 -1°C° 0.3 mm 4 mps 738 mmHg 82%
09:00 -1°C° 0.3 mm 4 mps 737 mmHg 87%
10:00 -1°C° 0.3 mm 5 mps 736 mmHg 91%
11:00 +1°C° 1.5 mm 5 mps 735 mmHg 93%
12:00 +2°C° 1.5 mm 5 mps 735 mmHg 95%
13:00 +3°C° 1.5 mm 5 mps 734 mmHg 97%
14:00 +5°C° 1.9 mm 5 mps 733 mmHg 97%
15:00 +5°C° 1.9 mm 6 mps 733 mmHg 97%
16:00 +7°C° 1.9 mm 6 mps 732 mmHg 97%
17:00 +7°C° 1.3 mm 6 mps 732 mmHg 95%
18:00 +7°C° 1.3 mm 6 mps 732 mmHg 94%
19:00 +8°C° 1.3 mm 6 mps 733 mmHg 93%
20:00 +8°C° 0.1 mm 6 mps 733 mmHg 92%
21:00 +7°C° 0.1 mm 5 mps 733 mmHg 91%
22:00 +7°C° 0.1 mm 5 mps 734 mmHg 91%
23:00 +7°C° 0 mm 4 mps 734 mmHg 92%

25 Octubre, Domingo

Tiempo Temperatura Precipitaciones Viento Presión Humedad
00:00 +7°C° 0 mm 4 mps 734 mmHg 94%
01:00 +6°C° 0 mm 4 mps 734 mmHg 95%
02:00 +7°C° 0 mm 3 mps 735 mmHg 96%
03:00 +7°C° 0 mm 3 mps 735 mmHg 97%
04:00 +7°C° 0 mm 3 mps 735 mmHg 97%
05:00 +7°C° 0 mm 2 mps 735 mmHg 98%
06:00 +7°C° 0 mm 2 mps 735 mmHg 98%
07:00 +7°C° 0 mm 2 mps 735 mmHg 98%
08:00 +8°C° 0 mm 2 mps 736 mmHg 97%
09:00 +8°C° 0 mm 2 mps 736 mmHg 95%
10:00 +9°C° 0 mm 3 mps 736 mmHg 94%
11:00 +9°C° 0.1 mm 3 mps 736 mmHg 95%
12:00 +9°C° 0.1 mm 3 mps 736 mmHg 97%
13:00 +10°C° 0.1 mm 3 mps 736 mmHg 98%
14:00 +9°C° 0.8 mm 3 mps 736 mmHg 98%
15:00 +8°C° 0.8 mm 4 mps 736 mmHg 97%
16:00 +8°C° 0.8 mm 5 mps 736 mmHg 97%
17:00 +8°C° 1.1 mm 5 mps 736 mmHg 97%
18:00 +8°C° 1.1 mm 5 mps 736 mmHg 96%
19:00 +8°C° 1.1 mm 4 mps 736 mmHg 96%
20:00 +8°C° 0.6 mm 4 mps 736 mmHg 95%
21:00 +8°C° 0.6 mm 4 mps 735 mmHg 94%
22:00 +8°C° 0.6 mm 4 mps 735 mmHg 94%
23:00 +8°C° 0.6 mm 4 mps 735 mmHg 94%

26 Octubre, Lunes

Tiempo Temperatura Precipitaciones Viento Presión Humedad
00:00 +8°C° 0.6 mm 4 mps 735 mmHg 95%
01:00 +8°C° 0.6 mm 4 mps 735 mmHg 96%
02:00 +8°C° 0.1 mm 4 mps 735 mmHg 96%
03:00 +10°C° 0.1 mm 4 mps 735 mmHg 96%
04:00 +10°C° 0.1 mm 4 mps 735 mmHg 96%
05:00 +10°C° 0.2 mm 4 mps 734 mmHg 96%
06:00 +10°C° 0.2 mm 4 mps 734 mmHg 96%
07:00 +10°C° 0.2 mm 4 mps 734 mmHg 96%
08:00 +10°C° 0 mm 4 mps 734 mmHg 94%
09:00 +10°C° 0 mm 5 mps 734 mmHg 93%
10:00 +10°C° 0 mm 5 mps 734 mmHg 91%
11:00 +10°C° 0.2 mm 5 mps 733 mmHg 89%
12:00 +10°C° 0.2 mm 5 mps 733 mmHg 87%
13:00 +10°C° 0.2 mm 5 mps 733 mmHg 85%
14:00 +10°C° 0.3 mm 5 mps 733 mmHg 85%
15:00 +10°C° 0.3 mm 5 mps 733 mmHg 85%
16:00 +10°C° 0.3 mm 5 mps 732 mmHg 85%
17:00 +11°C° 0.3 mm 4 mps 732 mmHg 86%
18:00 +10°C° 0.3 mm 4 mps 732 mmHg 88%
19:00 +10°C° 0.3 mm 4 mps 732 mmHg 89%
20:00 +8°C° 0 mm 4 mps 732 mmHg 88%
21:00 +8°C° 0 mm 3 mps 732 mmHg 87%
22:00 +8°C° 0 mm 3 mps 732 mmHg 85%
23:00 +7°C° 0 mm 3 mps 732 mmHg 85%
Mostrar más

Necesitamos Su Consentimiento

Meteoprog y nuestros Proveedores de Servicios pueden almacenar y acceder a sus datos personales como cookies, identificadores de dispositivo u otras tecnologías similares de su dispositivo y procesar dichos datos para personalizar contenido y anuncios, además de ofrecer funciones de redes sociales y analizar el tráfico.

  • Almacenar y/o acceder a información en su dispositivo

    Se puede almacenar o acceder a cookies, identificadores de dispositivo u otra información de su dispositivo para los fines anteriormente indicados.

  • Anuncios y contenido personalizados, medición de anuncios y contenido, percepciones del público, y desarrollo de productos

    Los anuncios y el contenido pueden personalizarse en base a su perfil. Se pueden añadir más datos para personalizar mejor los anuncios y contenidos. Se puede medir el rendimiento de los anuncios y contenidos. Se puede obtener la percepción sobre el público que ha visto los anuncios y contenidos. Dichos datos pueden usarse para desarrollar o mejorar la experiencia del usuario, sistemas y software.

Al hacer clic en ‘Estoy De Acuerdo’ usted permitirá el uso de las cookies, identificadores de dispositivo, balizas web u otras tecnologías similares indicadas. Su configuración puede cambiarse desde el navegador de su dispositivo.

Para ciertos fines, los intereses legítimos pueden ser considerados por encima del consentimiento. Puede leer más sobre ello en nuestra Política de Privacidad y Cookies.